Location: Appeville
(49.3218°N, 1.3427°W)
Time: 02:31:40
(UTC+00:00)

ALOS - Pass Details

Date: 08 December 2019
Orbit: 684 x 685 km, 97.8° (Epoch: 22 January)

Event Time Altitude Azimuth Distance (km) Brightness Sun altitude
Rises 05:00:29 0° 19° (NNE) 3,064 5.8 -26.1°
Reaches altitude 10° 05:02:51 10° 27° (NNE) 2,143 5.0 -25.7°
Maximum altitude 05:07:17 41° 97° (E) 1,002 3.5 -25.0°
Drops below altitude 10° 05:11:40 10° 168° (SSE) 2,126 5.0 -24.2°
Sets 05:14:01 0° 175° (S) 3,037 5.8 -23.9°
